Time,TemperatureF,DewpointF,PressureIn,WindDirection,WindDirectionDegrees,WindSpeedMPH,WindSpeedGustMPH,Humidity,HourlyPrecipIn,Conditions,Clouds,dailyrainin,SoftwareType,DateUTC
2013-12-25 00:02:00,27.4,24.8,30.23,NNW,338,2.9,5.4,90,0.00,,,0.00,WUHU216HW,2013-12-25 06:02:00,
2013-12-25 00:07:00,27.4,24.8,30.23,NNW,338,1.3,5.4,90,0.00,,,0.00,WUHU216HW,2013-12-25 06:07:00,
2013-12-25 00:12:00,27.5,25.0,30.23,NNW,338,2.5,4.7,90,0.00,,,0.00,WUHU216HW,2013-12-25 06:12:00,
2013-12-25 00:17:00,27.5,25.0,30.23,NNW,338,4.3,4.7,90,0.00,,,0.00,WUHU216HW,2013-12-25 06:17:00,
2013-12-25 00:22:00,27.5,25.0,30.23,NNW,338,2.7,6.0,90,0.00,,,0.00,WUHU216HW,2013-12-25 06:22:00,
2013-12-25 00:27:00,27.7,25.2,30.23,NNW,338,2.0,6.0,90,0.00,,,0.00,WUHU216HW,2013-12-25 06:27:00,
2013-12-25 00:32:00,27.7,25.2,30.23,NNW,338,3.4,4.5,90,0.00,,,0.00,WUHU216HW,2013-12-25 06:32:00,
2013-12-25 00:37:00,27.9,25.4,30.23,NNW,338,4.0,5.6,90,0.00,,,0.00,WUHU216HW,2013-12-25 06:37:00,
2013-12-25 00:42:00,28.1,25.3,30.23,NNW,338,2.9,5.6,89,0.00,,,0.00,WUHU216HW,2013-12-25 06:42:00,
2013-12-25 00:47:00,28.1,25.3,30.24,NNW,338,4.9,5.4,89,0.00,,,0.00,WUHU216HW,2013-12-25 06:47:00,
2013-12-25 00:52:00,28.3,25.5,30.24,NNW,338,4.0,5.4,89,0.00,,,0.00,WUHU216HW,2013-12-25 06:52:00,
2013-12-25 00:57:00,28.3,25.5,30.24,NNW,338,3.4,6.0,89,0.00,,,0.00,WUHU216HW,2013-12-25 06:57:00,
2013-12-25 01:02:00,28.4,25.7,30.24,NNW,338,6.0,6.0,89,0.00,,,0.00,WUHU216HW,2013-12-25 07:02:00,
2013-12-25 01:07:00,28.4,25.7,30.24,NNW,338,5.1,6.0,89,0.00,,,0.00,WUHU216HW,2013-12-25 07:07:00,
2013-12-25 01:12:00,28.4,25.7,30.23,NNW,338,4.0,5.4,89,0.00,,,0.00,WUHU216HW,2013-12-25 07:12:00,
2013-12-25 01:17:00,28.4,25.7,30.23,NNW,338,8.5,8.5,89,0.00,,,0.00,WUHU216HW,2013-12-25 07:17:00,
2013-12-25 01:20:00,28.4,25.7,30.23,NNW,338,5.1,8.5,89,0.00,,,0.00,WUHU216HW,2013-12-25 07:20:00,
2013-12-25 01:25:00,28.6,25.8,30.23,NNW,338,4.7,8.5,89,0.00,,,0.00,WUHU216HW,2013-12-25 07:25:00,
2013-12-25 01:30:00,28.6,25.8,30.23,NNW,338,4.7,7.2,89,0.00,,,0.00,WUHU216HW,2013-12-25 07:30:00,
2013-12-25 01:35:00,28.6,25.8,30.23,NNW,338,7.6,9.2,89,0.00,,,0.00,WUHU216HW,2013-12-25 07:35:00,
2013-12-25 01:40:00,28.8,26.0,30.23,NNW,338,5.4,9.2,89,0.00,,,0.00,WUHU216HW,2013-12-25 07:40:00,
2013-12-25 01:45:00,28.8,26.0,30.23,NNW,338,8.5,9.2,89,0.00,,,0.00,WUHU216HW,2013-12-25 07:45:00,
2013-12-25 01:50:00,28.8,26.0,30.24,NNW,338,6.3,9.2,89,0.00,,,0.00,WUHU216HW,2013-12-25 07:50:00,
2013-12-25 01:55:00,28.8,26.0,30.24,NNW,338,9.2,9.2,89,0.00,,,0.00,WUHU216HW,2013-12-25 07:55:00,
2013-12-25 02:00:00,28.8,26.0,30.24,NNW,338,5.1,9.2,89,0.00,,,0.00,WUHU216HW,2013-12-25 08:00:00,
2013-12-25 02:05:00,28.8,26.0,30.23,NNW,338,5.1,9.2,89,0.00,,,0.00,WUHU216HW,2013-12-25 08:05:00,
2013-12-25 02:10:00,28.8,26.0,30.24,NNW,338,4.7,7.2,89,0.00,,,0.00,WUHU216HW,2013-12-25 08:10:00,
2013-12-25 02:15:00,28.8,26.3,30.23,NNW,338,7.6,8.3,90,0.00,,,0.00,WUHU216HW,2013-12-25 08:15:00,
2013-12-25 02:20:00,28.8,26.3,30.24,NNW,338,7.6,8.3,90,0.00,,,0.00,WUHU216HW,2013-12-25 08:20:00,
2013-12-25 02:25:00,28.8,26.3,30.24,NNW,338,6.3,9.6,90,0.00,,,0.00,WUHU216HW,2013-12-25 08:25:00,
2013-12-25 02:30:00,28.8,26.0,30.24,NNW,338,8.5,9.6,89,0.00,,,0.00,WUHU216HW,2013-12-25 08:30:00,
2013-12-25 02:35:00,29.0,26.2,30.24,NNW,338,9.4,9.4,89,0.00,,,0.00,WUHU216HW,2013-12-25 08:35:00,
2013-12-25 02:43:00,29.0,26.2,30.24,NNW,338,6.3,9.4,89,0.00,,,0.00,WUHU216HW,2013-12-25 08:43:00,
2013-12-25 02:48:00,29.0,26.2,30.25,NNW,338,8.9,8.9,89,0.00,,,0.00,WUHU216HW,2013-12-25 08:48:00,
2013-12-25 02:53:00,29.2,26.4,30.25,NNW,338,7.6,9.2,89,0.00,,,0.00,WUHU216HW,2013-12-25 08:53:00,
2013-12-25 02:58:00,29.2,26.4,30.25,NNW,338,6.3,8.7,89,0.00,,,0.00,WUHU216HW,2013-12-25 08:58:00,
2013-12-25 03:03:00,29.2,26.4,30.25,NNW,338,7.2,8.7,89,0.00,,,0.00,WUHU216HW,2013-12-25 09:03:00,
2013-12-25 03:08:00,29.2,26.4,30.25,NNW,338,4.5,7.2,89,0.00,,,0.00,WUHU216HW,2013-12-25 09:08:00,
2013-12-25 03:13:00,29.2,26.1,30.25,NNW,338,5.6,7.4,88,0.00,,,0.00,WUHU216HW,2013-12-25 09:13:00,
2013-12-25 03:18:00,29.2,26.1,30.26,NNW,338,7.6,7.6,88,0.00,,,0.00,WUHU216HW,2013-12-25 09:18:00,
2013-12-25 03:23:00,29.2,26.1,30.26,NNW,338,4.5,8.1,88,0.00,,,0.00,WUHU216HW,2013-12-25 09:23:00,
2013-12-25 03:28:00,29.2,26.1,30.26,NNW,338,7.4,8.5,88,0.00,,,0.00,WUHU216HW,2013-12-25 09:28:00,
2013-12-25 03:33:00,29.2,26.1,30.26,NNW,338,6.5,9.2,88,0.00,,,0.00,WUHU216HW,2013-12-25 09:33:00,
2013-12-25 03:38:00,29.2,26.1,30.26,NNW,338,6.5,9.2,88,0.00,,,0.00,WUHU216HW,2013-12-25 09:38:00,
2013-12-25 03:43:00,29.2,26.1,30.26,NNW,338,8.5,8.5,88,0.00,,,0.00,WUHU216HW,2013-12-25 09:43:00,
2013-12-25 03:48:00,29.2,26.1,30.26,NNW,338,7.6,9.4,88,0.00,,,0.00,WUHU216HW,2013-12-25 09:48:00,
2013-12-25 03:53:00,29.2,25.7,30.25,NNW,338,12.8,13.4,87,0.00,,,0.00,WUHU216HW,2013-12-25 09:53:00,
2013-12-25 03:58:00,29.2,25.7,30.25,NNW,338,10.3,13.4,87,0.00,,,0.00,WUHU216HW,2013-12-25 09:58:00,
2013-12-25 04:03:00,29.2,25.7,30.25,NNW,338,9.2,12.1,87,0.00,,,0.00,WUHU216HW,2013-12-25 10:03:00,
2013-12-25 04:08:00,29.0,25.3,30.25,NNW,338,11.2,12.1,86,0.00,,,0.00,WUHU216HW,2013-12-25 10:08:00,
2013-12-25 04:13:00,29.0,25.3,30.26,NNW,338,4.7,11.9,86,0.00,,,0.00,WUHU216HW,2013-12-25 10:13:00,
2013-12-25 04:19:00,29.0,25.3,30.25,NNW,338,8.5,9.6,86,0.00,,,0.00,WUHU216HW,2013-12-25 10:19:00,
2013-12-25 04:24:00,28.8,25.4,30.25,NNW,338,8.7,11.0,87,0.00,,,0.00,WUHU216HW,2013-12-25 10:24:00,
2013-12-25 04:29:00,28.8,25.4,30.25,NNW,338,6.9,11.2,87,0.00,,,0.00,WUHU216HW,2013-12-25 10:29:00,
2013-12-25 04:34:00,28.8,25.1,30.25,NNW,338,5.4,11.2,86,0.00,,,0.00,WUHU216HW,2013-12-25 10:34:00,
2013-12-25 04:39:00,28.8,25.1,30.25,NNW,338,9.2,9.2,86,0.00,,,0.00,WUHU216HW,2013-12-25 10:39:00,
2013-12-25 04:44:00,29.0,25.3,30.26,NNW,338,6.9,9.8,86,0.00,,,0.00,WUHU216HW,2013-12-25 10:44:00,
2013-12-25 04:49:00,28.8,25.1,30.25,NNW,338,6.7,9.8,86,0.00,,,0.00,WUHU216HW,2013-12-25 10:49:00,
2013-12-25 04:54:00,28.8,25.1,30.26,NNW,338,6.3,9.8,86,0.00,,,0.00,WUHU216HW,2013-12-25 10:54:00,
2013-12-25 04:59:00,28.8,25.1,30.26,NNW,338,10.3,10.3,86,0.00,,,0.00,WUHU216HW,2013-12-25 10:59:00,
2013-12-25 05:04:00,28.8,25.1,30.26,NNW,338,7.4,10.3,86,0.00,,,0.00,WUHU216HW,2013-12-25 11:04:00,
2013-12-25 05:09:00,28.6,24.9,30.26,NNW,338,6.7,10.3,86,0.00,,,0.00,WUHU216HW,2013-12-25 11:09:00,
2013-12-25 05:14:00,28.6,24.9,30.26,NNW,338,6.3,8.5,86,0.00,,,0.00,WUHU216HW,2013-12-25 11:14:00,
2013-12-25 05:19:00,28.6,24.9,30.26,NNW,338,7.6,7.6,86,0.00,,,0.00,WUHU216HW,2013-12-25 11:19:00,
2013-12-25 05:24:00,28.6,24.9,30.26,NNW,338,9.8,9.8,86,0.00,,,0.00,WUHU216HW,2013-12-25 11:24:00,
2013-12-25 05:29:00,28.6,24.9,30.26,NNW,338,8.1,9.8,86,0.00,,,0.00,WUHU216HW,2013-12-25 11:29:00,
2013-12-25 05:34:00,28.6,24.9,30.26,NNW,338,10.1,10.1,86,0.00,,,0.00,WUHU216HW,2013-12-25 11:34:00,
2013-12-25 05:39:00,28.4,25.0,30.26,NNW,338,8.5,10.5,87,0.00,,,0.00,WUHU216HW,2013-12-25 11:39:00,
2013-12-25 05:44:00,28.4,25.0,30.25,NNW,338,7.4,10.5,87,0.00,,,0.00,WUHU216HW,2013-12-25 11:44:00,
2013-12-25 05:49:00,28.3,24.6,30.25,NNW,338,6.5,10.5,86,0.00,,,0.00,WUHU216HW,2013-12-25 11:49:00,
2013-12-25 05:54:00,28.1,24.1,30.25,NNW,338,4.9,7.4,85,0.00,,,0.00,WUHU216HW,2013-12-25 11:54:00,
2013-12-25 05:59:00,27.9,23.9,30.25,NNW,338,7.4,8.7,85,0.00,,,0.00,WUHU216HW,2013-12-25 11:59:00,
2013-12-25 06:05:00,27.9,23.9,30.25,NNW,338,6.5,8.7,85,0.00,,,0.00,WUHU216HW,2013-12-25 12:05:00,
2013-12-25 06:10:00,27.5,23.6,30.25,NNW,338,7.2,8.7,85,0.00,,,0.00,WUHU216HW,2013-12-25 12:10:00,
2013-12-25 06:15:00,27.4,23.1,30.26,NNW,338,6.7,7.8,84,0.00,,,0.00,WUHU216HW,2013-12-25 12:15:00,
2013-12-25 06:20:00,27.4,23.1,30.26,NNW,338,6.0,7.8,84,0.00,,,0.00,WUHU216HW,2013-12-25 12:20:00,
2013-12-25 06:25:00,27.2,23.2,30.27,NNW,338,9.8,9.8,85,0.00,,,0.00,WUHU216HW,2013-12-25 12:25:00,
2013-12-25 06:30:00,27.0,23.0,30.27,NNW,338,7.6,12.1,85,0.00,,,0.00,WUHU216HW,2013-12-25 12:30:00,
2013-12-25 06:35:00,27.0,23.0,30.27,NNW,338,6.9,12.1,85,0.00,,,0.00,WUHU216HW,2013-12-25 12:35:00,
2013-12-25 06:40:00,27.0,23.0,30.28,NNW,338,4.7,9.2,85,0.00,,,0.00,WUHU216HW,2013-12-25 12:40:00,
2013-12-25 06:45:00,27.0,23.0,30.28,NNW,338,8.3,9.2,85,0.00,,,0.00,WUHU216HW,2013-12-25 12:45:00,
2013-12-25 06:50:00,27.0,23.0,30.28,NNW,338,8.5,8.5,85,0.00,,,0.00,WUHU216HW,2013-12-25 12:50:00,
2013-12-25 06:55:00,27.0,23.0,30.28,NNW,338,8.5,8.5,85,0.00,,,0.00,WUHU216HW,2013-12-25 12:55:00,
2013-12-25 07:00:00,27.0,23.0,30.28,NNW,338,8.5,9.4,85,0.00,,,0.00,WUHU216HW,2013-12-25 13:00:00,
2013-12-25 07:05:00,26.8,22.9,30.28,NNW,338,4.7,9.4,85,0.00,,,0.00,WUHU216HW,2013-12-25 13:05:00,
2013-12-25 07:10:00,26.8,22.9,30.28,NNW,338,4.0,9.8,85,0.00,,,0.00,WUHU216HW,2013-12-25 13:10:00,
2013-12-25 07:15:00,26.6,22.7,30.29,NNW,338,13.2,13.2,85,0.00,,,0.00,WUHU216HW,2013-12-25 13:15:00,
2013-12-25 07:20:00,26.6,22.7,30.29,NNW,338,8.1,13.2,85,0.00,,,0.00,WUHU216HW,2013-12-25 13:20:00,
2013-12-25 07:25:00,26.6,22.7,30.28,NNW,338,3.8,10.1,85,0.00,,,0.00,WUHU216HW,2013-12-25 13:25:00,
2013-12-25 07:30:00,26.6,22.7,30.28,NNW,338,8.3,10.1,85,0.00,,,0.00,WUHU216HW,2013-12-25 13:30:00,
2013-12-25 07:35:00,26.5,22.2,30.28,NNW,338,3.1,8.3,84,0.00,,,0.00,WUHU216HW,2013-12-25 13:35:00,
2013-12-25 07:40:00,26.3,22.1,30.28,NNW,338,4.0,5.4,84,0.00,,,0.00,WUHU216HW,2013-12-25 13:40:00,
2013-12-25 07:45:00,26.3,22.1,30.28,NNW,338,4.5,5.4,84,0.00,,,0.00,WUHU216HW,2013-12-25 13:45:00,
2013-12-25 07:50:00,26.3,22.3,30.28,NNW,338,2.9,4.7,85,0.00,,,0.00,WUHU216HW,2013-12-25 13:50:00,
2013-12-25 07:55:00,26.3,22.1,30.28,NNW,338,4.0,5.1,84,0.00,,,0.00,WUHU216HW,2013-12-25 13:55:00,
2013-12-25 08:00:00,26.3,22.1,30.28,NNW,338,4.3,5.1,84,0.00,,,0.00,WUHU216HW,2013-12-25 14:00:00,
2013-12-25 08:05:00,26.3,22.1,30.28,NNW,338,4.0,5.4,84,0.00,,,0.00,WUHU216HW,2013-12-25 14:05:00,
2013-12-25 08:10:00,26.3,22.1,30.28,NNW,338,4.0,5.4,84,0.00,,,0.00,WUHU216HW,2013-12-25 14:10:00,
2013-12-25 08:15:00,26.5,22.2,30.29,NNW,338,2.5,4.7,84,0.00,,,0.00,WUHU216HW,2013-12-25 14:15:00,
2013-12-25 08:20:00,26.3,22.1,30.29,NNW,338,3.4,4.7,84,0.00,,,0.00,WUHU216HW,2013-12-25 14:20:00,
2013-12-25 08:25:00,26.5,22.2,30.29,NNW,338,2.5,3.4,84,0.00,,,0.00,WUHU216HW,2013-12-25 14:25:00,
2013-12-25 08:30:00,26.3,22.1,30.29,NNW,338,4.5,4.5,84,0.00,,,0.00,WUHU216HW,2013-12-25 14:30:00,
2013-12-25 08:35:00,26.1,21.9,30.29,NNW,338,3.6,4.9,84,0.00,,,0.00,WUHU216HW,2013-12-25 14:35:00,
2013-12-25 08:40:00,26.3,22.1,30.29,NNW,338,2.2,4.9,84,0.00,,,0.00,WUHU216HW,2013-12-25 14:40:00,
2013-12-25 08:45:00,27.0,22.5,30.29,NNW,338,2.5,4.3,83,0.00,,,0.00,WUHU216HW,2013-12-25 14:45:00,
2013-12-25 08:50:00,27.7,23.2,30.28,NNW,338,2.0,3.8,83,0.00,,,0.00,WUHU216HW,2013-12-25 14:50:00,
2013-12-25 08:55:00,28.4,23.3,30.28,NNW,338,2.5,2.5,81,0.00,,,0.00,WUHU216HW,2013-12-25 14:55:00,
2013-12-25 09:00:00,28.8,23.1,30.29,NNW,338,3.8,3.8,79,0.00,,,0.00,WUHU216HW,2013-12-25 15:00:00,
2013-12-25 09:05:00,29.5,23.5,30.29,NNW,338,2.7,3.8,78,0.00,,,0.00,WUHU216HW,2013-12-25 15:05:00,
2013-12-25 09:13:00,30.2,24.2,30.29,NNW,338,4.5,4.5,78,0.00,,,0.00,WUHU216HW,2013-12-25 15:13:00,
2013-12-25 09:18:00,31.0,23.9,30.29,NNW,338,5.6,5.6,75,0.00,,,0.00,WUHU216HW,2013-12-25 15:18:00,
2013-12-25 09:23:00,31.0,23.6,30.30,NNW,338,5.6,5.6,74,0.00,,,0.00,WUHU216HW,2013-12-25 15:23:00,
2013-12-25 09:28:00,30.8,23.4,30.29,NNW,338,4.0,6.3,74,0.00,,,0.00,WUHU216HW,2013-12-25 15:28:00,
2013-12-25 09:33:00,31.1,23.8,30.30,NNW,338,5.1,6.3,74,0.00,,,0.00,WUHU216HW,2013-12-25 15:33:00,
2013-12-25 09:38:00,31.1,23.5,30.30,NNW,338,4.9,6.0,73,0.00,,,0.00,WUHU216HW,2013-12-25 15:38:00,
2013-12-25 09:43:00,31.3,23.7,30.30,NNW,338,4.7,6.0,73,0.00,,,0.00,WUHU216HW,2013-12-25 15:43:00,
2013-12-25 09:48:00,31.7,24.0,30.30,NNW,338,6.0,6.0,73,0.00,,,0.00,WUHU216HW,2013-12-25 15:48:00,
2013-12-25 09:53:00,31.7,24.0,30.30,NNW,338,2.5,6.9,73,0.00,,,0.00,WUHU216HW,2013-12-25 15:53:00,
2013-12-25 09:58:00,31.7,23.7,30.30,NNW,338,7.6,7.6,72,0.00,,,0.00,WUHU216HW,2013-12-25 15:58:00,
2013-12-25 10:03:00,31.9,23.9,30.30,NNW,338,4.7,7.6,72,0.00,,,0.00,WUHU216HW,2013-12-25 16:03:00,
2013-12-25 10:08:00,31.7,23.7,30.30,NNW,338,2.9,7.6,72,0.00,,,0.00,WUHU216HW,2013-12-25 16:08:00,
2013-12-25 10:13:00,32.0,24.0,30.30,NNW,338,2.7,7.6,72,0.00,,,0.00,WUHU216HW,2013-12-25 16:13:00,
2013-12-25 10:18:00,32.2,23.9,30.30,NNW,338,5.4,6.5,71,0.00,,,0.00,WUHU216HW,2013-12-25 16:18:00,
2013-12-25 10:23:00,32.2,23.9,30.30,NNW,338,4.0,6.9,71,0.00,,,0.00,WUHU216HW,2013-12-25 16:23:00,
2013-12-25 10:28:00,32.4,24.0,30.30,NNW,338,7.6,7.6,71,0.00,,,0.00,WUHU216HW,2013-12-25 16:28:00,
2013-12-25 10:36:00,32.2,23.9,30.30,NNW,338,5.4,7.6,71,0.00,,,0.00,WUHU216HW,2013-12-25 16:36:00,
2013-12-25 10:41:00,33.5,24.3,30.30,NNW,338,3.8,7.6,69,0.00,,,0.00,WUHU216HW,2013-12-25 16:41:00,
2013-12-25 10:46:00,34.0,24.5,30.30,NNW,338,7.4,7.6,68,0.00,,,0.00,WUHU216HW,2013-12-25 16:46:00,
2013-12-25 10:51:00,33.8,24.3,30.30,NNW,338,7.6,8.5,68,0.00,,,0.00,WUHU216HW,2013-12-25 16:51:00,
2013-12-25 10:56:00,34.0,24.5,30.29,NNW,338,6.3,8.5,68,0.00,,,0.00,WUHU216HW,2013-12-25 16:56:00,
2013-12-25 11:01:00,34.4,24.5,30.29,NNW,338,4.5,8.3,67,0.00,,,0.00,WUHU216HW,2013-12-25 17:01:00,
2013-12-25 11:06:00,35.5,25.2,30.30,NNW,338,4.0,8.3,66,0.00,,,0.00,WUHU216HW,2013-12-25 17:06:00,
2013-12-25 11:11:00,35.6,25.0,30.29,NNW,338,4.0,6.3,65,0.00,,,0.00,WUHU216HW,2013-12-25 17:11:00,
2013-12-25 11:16:00,35.6,25.0,30.29,NNW,338,3.4,7.2,65,0.00,,,0.00,WUHU216HW,2013-12-25 17:16:00,
2013-12-25 11:21:00,36.2,25.6,30.29,NNW,338,3.4,7.2,65,0.00,,,0.00,WUHU216HW,2013-12-25 17:21:00,
2013-12-25 11:26:00,36.9,25.8,30.28,NNW,338,4.7,8.1,64,0.00,,,0.00,WUHU216HW,2013-12-25 17:26:00,
2013-12-25 11:31:00,37.4,25.6,30.29,NNW,338,3.4,8.1,62,0.00,,,0.00,WUHU216HW,2013-12-25 17:31:00,
2013-12-25 11:36:00,37.3,25.5,30.28,NNW,338,7.4,7.4,62,0.00,,,0.00,WUHU216HW,2013-12-25 17:36:00,
2013-12-25 11:41:00,36.7,25.3,30.28,NNW,338,6.3,7.4,63,0.00,,,0.00,WUHU216HW,2013-12-25 17:41:00,
2013-12-25 11:48:00,36.5,25.1,30.28,NNW,338,6.7,7.6,63,0.00,,,0.00,WUHU216HW,2013-12-25 17:48:00,
2013-12-25 11:53:00,37.1,25.3,30.28,NNW,338,4.7,6.9,62,0.00,,,0.00,WUHU216HW,2013-12-25 17:53:00,
2013-12-25 11:58:00,36.9,25.5,30.28,NNW,338,9.8,9.8,63,0.00,,,0.00,WUHU216HW,2013-12-25 17:58:00,
2013-12-25 12:09:00,36.7,24.9,30.28,NNW,338,4.7,9.8,62,0.00,,,0.00,WUHU216HW,2013-12-25 18:09:00,
2013-12-25 12:14:00,37.1,25.7,30.28,NNW,338,6.9,6.9,63,0.00,,,0.00,WUHU216HW,2013-12-25 18:14:00,
2013-12-25 12:19:00,36.5,25.5,30.27,NNW,338,9.8,9.8,64,0.00,,,0.00,WUHU216HW,2013-12-25 18:19:00,
2013-12-25 12:24:00,36.2,25.9,30.27,WSW,248,6.7,9.8,66,0.00,,,0.00,WUHU216HW,2013-12-25 18:24:00,
2013-12-25 12:29:00,36.5,26.3,30.27,WSW,248,7.8,9.2,66,0.00,,,0.00,WUHU216HW,2013-12-25 18:29:00,
2013-12-25 12:34:00,37.1,26.4,30.27,WSW,248,6.5,9.2,65,0.00,,,0.00,WUHU216HW,2013-12-25 18:34:00,
2013-12-25 12:39:00,37.1,26.0,30.27,WSW,248,10.5,10.5,64,0.00,,,0.00,WUHU216HW,2013-12-25 18:39:00,
2013-12-25 12:44:00,36.5,25.5,30.27,WSW,248,13.4,13.4,64,0.00,,,0.00,WUHU216HW,2013-12-25 18:44:00,
2013-12-25 12:49:00,36.0,25.4,30.26,WSW,248,8.5,13.4,65,0.00,,,0.00,WUHU216HW,2013-12-25 18:49:00,
2013-12-25 12:54:00,35.5,24.8,30.26,WSW,248,11.9,11.9,65,0.00,,,0.00,WUHU216HW,2013-12-25 18:54:00,
2013-12-25 12:59:00,35.3,25.0,30.26,WSW,248,10.3,12.1,66,0.00,,,0.00,WUHU216HW,2013-12-25 18:59:00,
2013-12-25 13:04:00,34.9,25.0,30.26,WSW,248,10.1,12.1,67,0.00,,,0.00,WUHU216HW,2013-12-25 19:04:00,
2013-12-25 13:09:00,34.9,25.0,30.26,WSW,248,5.8,11.2,67,0.00,,,0.00,WUHU216HW,2013-12-25 19:09:00,
2013-12-25 13:14:00,34.9,25.0,30.26,WSW,248,8.9,11.0,67,0.00,,,0.00,WUHU216HW,2013-12-25 19:14:00,
2013-12-25 13:19:00,35.1,25.2,30.26,WSW,248,10.7,10.7,67,0.00,,,0.00,WUHU216HW,2013-12-25 19:19:00,
2013-12-25 13:24:00,35.3,25.4,30.26,WSW,248,8.7,10.7,67,0.00,,,0.00,WUHU216HW,2013-12-25 19:24:00,
2013-12-25 13:29:00,35.5,25.2,30.26,WSW,248,8.3,9.8,66,0.00,,,0.00,WUHU216HW,2013-12-25 19:29:00,
2013-12-25 13:34:00,35.3,25.0,30.25,WSW,248,7.4,11.2,66,0.00,,,0.00,WUHU216HW,2013-12-25 19:34:00,
2013-12-25 13:39:00,35.1,25.2,30.25,WSW,248,8.3,11.2,67,0.00,,,0.00,WUHU216HW,2013-12-25 19:39:00,
2013-12-25 13:44:00,35.1,25.2,30.25,WSW,248,9.4,9.6,67,0.00,,,0.00,WUHU216HW,2013-12-25 19:44:00,
2013-12-25 13:45:00,35.3,25.4,30.25,WSW,248,7.4,9.4,67,0.00,,,0.00,WUHU216HW,2013-12-25 19:45:00,
2013-12-25 13:50:00,35.3,25.4,30.25,WSW,248,6.3,10.7,67,0.00,,,0.00,WUHU216HW,2013-12-25 19:50:00,
2013-12-25 13:55:00,35.3,25.4,30.25,WSW,248,6.3,10.7,67,0.00,,,0.00,WUHU216HW,2013-12-25 19:55:00,
2013-12-25 14:00:00,35.5,25.9,30.25,WSW,248,10.3,10.3,68,0.00,,,0.00,WUHU216HW,2013-12-25 20:00:00,
2013-12-25 14:05:00,36.0,26.1,30.25,WSW,248,6.9,10.3,67,0.00,,,0.00,WUHU216HW,2013-12-25 20:05:00,
2013-12-25 14:10:00,36.2,26.3,30.25,WSW,248,6.3,8.3,67,0.00,,,0.00,WUHU216HW,2013-12-25 20:10:00,
2013-12-25 14:15:00,36.4,26.5,30.25,WSW,248,6.3,8.7,67,0.00,,,0.00,WUHU216HW,2013-12-25 20:15:00,
2013-12-25 14:20:00,37.3,26.9,30.25,WSW,248,6.5,8.7,66,0.00,,,0.00,WUHU216HW,2013-12-25 20:20:00,
2013-12-25 14:25:00,37.4,26.7,30.25,WSW,248,4.0,8.5,65,0.00,,,0.00,WUHU216HW,2013-12-25 20:25:00,
2013-12-25 14:30:00,37.4,26.7,30.25,WNW,293,6.9,7.6,65,0.00,,,0.00,WUHU216HW,2013-12-25 20:30:00,
2013-12-25 14:35:00,37.6,26.9,30.26,West,270,3.4,8.5,65,0.00,,,0.00,WUHU216HW,2013-12-25 20:35:00,
2013-12-25 14:40:00,37.8,27.1,30.26,West,270,7.2,8.5,65,0.00,,,0.00,WUHU216HW,2013-12-25 20:40:00,
2013-12-25 14:45:00,38.3,27.2,30.26,WNW,293,6.0,7.2,64,0.00,,,0.00,WUHU216HW,2013-12-25 20:45:00,
2013-12-25 14:50:00,38.7,27.1,30.26,West,270,6.3,7.2,63,0.00,,,0.00,WUHU216HW,2013-12-25 20:50:00,
2013-12-25 14:55:00,39.1,27.5,30.26,West,270,3.8,8.1,63,0.00,,,0.00,WUHU216HW,2013-12-25 20:55:00,
2013-12-25 15:00:00,39.2,27.6,30.26,WNW,293,6.3,8.1,63,0.00,,,0.00,WUHU216HW,2013-12-25 21:00:00,
2013-12-25 15:05:00,39.8,27.7,30.27,WNW,293,5.1,7.2,62,0.00,,,0.00,WUHU216HW,2013-12-25 21:05:00,
2013-12-25 15:10:00,40.1,27.7,30.26,NW,315,7.4,7.4,61,0.00,,,0.00,WUHU216HW,2013-12-25 21:10:00,
2013-12-25 15:15:00,40.7,27.9,30.26,WNW,293,7.2,7.4,60,0.00,,,0.00,WUHU216HW,2013-12-25 21:15:00,
2013-12-25 15:20:00,41.2,28.0,30.26,West,270,6.0,8.5,59,0.00,,,0.00,WUHU216HW,2013-12-25 21:20:00,
2013-12-25 15:25:00,41.2,28.0,30.26,West,270,4.0,8.5,59,0.00,,,0.00,WUHU216HW,2013-12-25 21:25:00,
2013-12-25 15:30:00,41.4,28.2,30.27,WSW,248,4.5,5.8,59,0.00,,,0.00,WUHU216HW,2013-12-25 21:30:00,
2013-12-25 15:35:00,42.3,28.1,30.27,WSW,248,3.8,4.5,57,0.00,,,0.00,WUHU216HW,2013-12-25 21:35:00,
2013-12-25 15:40:00,43.2,28.5,30.27,SW,225,1.6,4.5,56,0.00,,,0.00,WUHU216HW,2013-12-25 21:40:00,
2013-12-25 15:45:00,43.9,28.3,30.27,WSW,248,3.4,4.7,54,0.00,,,0.00,WUHU216HW,2013-12-25 21:45:00,
2013-12-25 15:50:00,43.9,28.3,30.28,WSW,248,1.3,4.7,54,0.00,,,0.00,WUHU216HW,2013-12-25 21:50:00,
2013-12-25 15:55:00,44.3,28.2,30.28,WSW,248,2.2,4.7,53,0.00,,,0.00,WUHU216HW,2013-12-25 21:55:00,
2013-12-25 16:00:00,44.3,28.2,30.28,SSW,203,2.2,3.4,53,0.00,,,0.00,WUHU216HW,2013-12-25 22:00:00,
2013-12-25 16:05:00,44.6,29.0,30.28,WSW,248,1.8,3.6,54,0.00,,,0.00,WUHU216HW,2013-12-25 22:05:00,
2013-12-25 16:10:00,44.1,28.0,30.28,West,270,2.5,4.0,53,0.00,,,0.00,WUHU216HW,2013-12-25 22:10:00,
2013-12-25 16:15:00,42.8,27.3,30.28,West,270,5.1,5.1,54,0.00,,,0.00,WUHU216HW,2013-12-25 22:15:00,
2013-12-25 16:20:00,41.4,26.8,30.28,NW,315,4.7,5.8,56,0.00,,,0.00,WUHU216HW,2013-12-25 22:20:00,
2013-12-25 16:25:00,40.7,27.0,30.28,West,270,4.0,5.8,58,0.00,,,0.00,WUHU216HW,2013-12-25 22:25:00,
2013-12-25 16:30:00,39.8,27.0,30.28,West,270,5.8,5.8,60,0.00,,,0.00,WUHU216HW,2013-12-25 22:30:00,
2013-12-25 16:35:00,39.1,26.6,30.28,WNW,293,3.8,5.8,61,0.00,,,0.00,WUHU216HW,2013-12-25 22:35:00,
2013-12-25 16:40:00,38.7,26.7,30.29,West,270,3.6,4.7,62,0.00,,,0.00,WUHU216HW,2013-12-25 22:40:00,
2013-12-25 16:45:00,38.2,26.7,30.29,NW,315,3.1,4.7,63,0.00,,,0.00,WUHU216HW,2013-12-25 22:45:00,
2013-12-25 16:50:00,37.6,26.1,30.29,WNW,293,3.6,5.4,63,0.00,,,0.00,WUHU216HW,2013-12-25 22:50:00,
2013-12-25 16:55:00,37.1,26.0,30.29,WNW,293,3.1,5.4,64,0.00,,,0.00,WUHU216HW,2013-12-25 22:55:00,
2013-12-25 17:00:00,36.4,26.5,30.29,WSW,248,4.3,5.1,67,0.00,,,0.00,WUHU216HW,2013-12-25 23:00:00,
2013-12-25 17:05:00,36.0,26.1,30.29,WSW,248,4.3,5.1,67,0.00,,,0.00,WUHU216HW,2013-12-25 23:05:00,
2013-12-25 17:10:00,35.6,25.7,30.29,SSW,203,5.4,5.4,67,0.00,,,0.00,WUHU216HW,2013-12-25 23:10:00,
2013-12-25 17:15:00,35.3,25.7,30.29,WNW,293,4.9,5.4,68,0.00,,,0.00,WUHU216HW,2013-12-25 23:15:00,
2013-12-25 17:20:00,34.9,25.7,30.29,West,270,4.9,5.1,69,0.00,,,0.00,WUHU216HW,2013-12-25 23:20:00,
2013-12-25 17:25:00,34.4,25.2,30.29,West,270,4.0,5.4,69,0.00,,,0.00,WUHU216HW,2013-12-25 23:25:00,
2013-12-25 17:30:00,34.2,25.4,30.29,West,270,4.0,5.4,70,0.00,,,0.00,WUHU216HW,2013-12-25 23:30:00,
2013-12-25 17:35:00,34.0,25.2,30.29,West,270,4.5,4.5,70,0.00,,,0.00,WUHU216HW,2013-12-25 23:35:00,
2013-12-25 17:40:00,34.2,25.4,30.29,WSW,248,1.8,4.5,70,0.00,,,0.00,WUHU216HW,2013-12-25 23:40:00,
2013-12-25 17:45:00,34.2,25.4,30.29,WNW,293,1.3,4.0,70,0.00,,,0.00,WUHU216HW,2013-12-25 23:45:00,
2013-12-25 17:50:00,34.0,25.2,30.29,West,270,3.8,4.5,70,0.00,,,0.00,WUHU216HW,2013-12-25 23:50:00,
2013-12-25 17:55:00,33.8,25.0,30.29,WSW,248,2.0,4.7,70,0.00,,,0.00,WUHU216HW,2013-12-25 23:55:00,
2013-12-25 18:03:00,33.8,25.0,30.30,WNW,293,4.0,4.7,70,0.00,,,0.00,WUHU216HW,2013-12-26 00:03:00,
2013-12-25 18:08:00,33.5,24.7,30.30,NW,315,1.8,4.5,70,0.00,,,0.00,WUHU216HW,2013-12-26 00:08:00,
2013-12-25 18:13:00,33.1,24.4,30.30,WNW,293,3.1,4.0,70,0.00,,,0.00,WUHU216HW,2013-12-26 00:13:00,
2013-12-25 18:18:00,32.9,24.6,30.30,WNW,293,2.9,4.5,71,0.00,,,0.00,WUHU216HW,2013-12-26 00:18:00,
2013-12-25 18:23:00,32.8,24.4,30.30,WNW,293,4.3,4.5,71,0.00,,,0.00,WUHU216HW,2013-12-26 00:23:00,
2013-12-25 18:28:00,32.4,24.0,30.31,WNW,293,4.0,4.3,71,0.00,,,0.00,WUHU216HW,2013-12-26 00:28:00,
2013-12-25 18:33:00,32.2,24.2,30.31,NW,315,4.0,4.0,72,0.00,,,0.00,WUHU216HW,2013-12-26 00:33:00,
2013-12-25 18:38:00,32.0,24.0,30.31,NW,315,3.1,4.3,72,0.00,,,0.00,WUHU216HW,2013-12-26 00:38:00,
2013-12-25 18:43:00,31.7,23.7,30.31,WNW,293,4.0,4.5,72,0.00,,,0.00,WUHU216HW,2013-12-26 00:43:00,
2013-12-25 18:48:00,31.5,23.9,30.31,WNW,293,3.8,4.5,73,0.00,,,0.00,WUHU216HW,2013-12-26 00:48:00,
2013-12-25 18:53:00,31.5,24.1,30.31,WNW,293,4.5,4.5,74,0.00,,,0.00,WUHU216HW,2013-12-26 00:53:00,
2013-12-25 18:58:00,31.3,23.9,30.31,WNW,293,3.6,4.5,74,0.00,,,0.00,WUHU216HW,2013-12-26 00:58:00,
2013-12-25 19:03:00,31.3,23.9,30.31,WNW,293,3.4,4.0,74,0.00,,,0.00,WUHU216HW,2013-12-26 01:03:00,
2013-12-25 19:08:00,31.3,24.3,30.31,WNW,293,3.8,4.0,75,0.00,,,0.00,WUHU216HW,2013-12-26 01:08:00,
2013-12-25 19:13:00,31.3,24.3,30.31,WNW,293,3.4,4.3,75,0.00,,,0.00,WUHU216HW,2013-12-26 01:13:00,
2013-12-25 19:18:00,31.1,23.8,30.31,WNW,293,2.7,4.3,74,0.00,,,0.00,WUHU216HW,2013-12-26 01:18:00,
2013-12-25 19:23:00,31.0,24.3,30.31,West,270,3.4,4.0,76,0.00,,,0.00,WUHU216HW,2013-12-26 01:23:00,
2013-12-25 19:28:00,31.0,24.3,30.31,WNW,293,2.2,4.0,76,0.00,,,0.00,WUHU216HW,2013-12-26 01:28:00,
2013-12-25 19:33:00,30.8,24.1,30.31,WNW,293,2.2,3.6,76,0.00,,,0.00,WUHU216HW,2013-12-26 01:33:00,
2013-12-25 19:38:00,30.6,23.6,30.31,WNW,293,3.1,3.1,75,0.00,,,0.00,WUHU216HW,2013-12-26 01:38:00,
2013-12-25 19:43:00,30.6,24.0,30.32,WNW,293,3.4,3.6,76,0.00,,,0.00,WUHU216HW,2013-12-26 01:43:00,
2013-12-25 19:48:00,30.6,24.0,30.32,WNW,293,3.4,3.6,76,0.00,,,0.00,WUHU216HW,2013-12-26 01:48:00,
2013-12-25 19:53:00,30.6,24.0,30.32,WNW,293,2.7,3.4,76,0.00,,,0.00,WUHU216HW,2013-12-26 01:53:00,
2013-12-25 19:58:00,30.6,24.2,30.32,WNW,293,3.4,3.8,77,0.00,,,0.00,WUHU216HW,2013-12-26 01:58:00,
2013-12-25 20:03:00,30.6,24.2,30.32,WNW,293,3.8,3.8,77,0.00,,,0.00,WUHU216HW,2013-12-26 02:03:00,
2013-12-25 20:08:00,30.6,24.0,30.32,WNW,293,2.5,4.3,76,0.00,,,0.00,WUHU216HW,2013-12-26 02:08:00,
2013-12-25 20:13:00,30.6,24.0,30.32,WNW,293,3.4,4.3,76,0.00,,,0.00,WUHU216HW,2013-12-26 02:13:00,
2013-12-25 20:18:00,30.4,23.8,30.32,WNW,293,1.6,3.4,76,0.00,,,0.00,WUHU216HW,2013-12-26 02:18:00,
2013-12-25 20:23:00,30.2,23.6,30.33,WNW,293,2.5,3.1,76,0.00,,,0.00,WUHU216HW,2013-12-26 02:23:00,
2013-12-25 20:28:00,29.9,23.2,30.33,NW,315,3.4,3.6,76,0.00,,,0.00,WUHU216HW,2013-12-26 02:28:00,
2013-12-25 20:33:00,29.5,22.5,30.33,NW,315,3.4,3.8,75,0.00,,,0.00,WUHU216HW,2013-12-26 02:33:00,
2013-12-25 20:38:00,29.3,23.0,30.33,WNW,293,4.0,4.7,77,0.00,,,0.00,WUHU216HW,2013-12-26 02:38:00,
2013-12-25 20:43:00,29.5,22.9,30.33,NW,315,3.4,4.7,76,0.00,,,0.00,WUHU216HW,2013-12-26 02:43:00,
2013-12-25 20:48:00,29.7,23.1,30.34,NNW,338,3.4,4.0,76,0.00,,,0.00,WUHU216HW,2013-12-26 02:48:00,
2013-12-25 20:53:00,29.3,22.7,30.34,NW,315,3.1,4.0,76,0.00,,,0.00,WUHU216HW,2013-12-26 02:53:00,
2013-12-25 20:58:00,29.2,22.5,30.34,NW,315,2.5,3.6,76,0.00,,,0.00,WUHU216HW,2013-12-26 02:58:00,
2013-12-25 21:03:00,28.8,22.5,30.34,NW,315,2.7,3.4,77,0.00,,,0.00,WUHU216HW,2013-12-26 03:03:00,
2013-12-25 21:08:00,28.8,22.5,30.34,NW,315,2.9,3.4,77,0.00,,,0.00,WUHU216HW,2013-12-26 03:08:00,
2013-12-25 21:13:00,28.8,22.5,30.34,NNW,338,4.3,4.3,77,0.00,,,0.00,WUHU216HW,2013-12-26 03:13:00,
2013-12-25 21:18:00,28.6,22.3,30.34,NW,315,3.4,4.5,77,0.00,,,0.00,WUHU216HW,2013-12-26 03:18:00,
2013-12-25 21:23:00,28.6,22.3,30.34,NW,315,2.0,4.5,77,0.00,,,0.00,WUHU216HW,2013-12-26 03:23:00,
2013-12-25 21:28:00,28.6,22.3,30.34,NW,315,3.4,3.4,77,0.00,,,0.00,WUHU216HW,2013-12-26 03:28:00,
2013-12-25 21:33:00,28.3,21.6,30.34,West,270,1.6,3.4,76,0.00,,,0.00,WUHU216HW,2013-12-26 03:33:00,
2013-12-25 21:38:00,27.5,20.6,30.34,WNW,293,2.2,3.4,75,0.00,,,0.00,WUHU216HW,2013-12-26 03:38:00,
2013-12-25 21:43:00,27.0,20.3,30.34,West,270,2.5,2.9,76,0.00,,,0.00,WUHU216HW,2013-12-26 03:43:00,
2013-12-25 21:48:00,26.6,20.0,30.33,West,270,1.8,2.9,76,0.00,,,0.00,WUHU216HW,2013-12-26 03:48:00,
2013-12-25 21:53:00,26.3,20.0,30.33,West,270,0.2,2.5,77,0.00,,,0.00,WUHU216HW,2013-12-26 03:53:00,
2013-12-25 21:58:00,26.3,19.7,30.34,WSW,248,0.0,1.3,76,0.00,,,0.00,WUHU216HW,2013-12-26 03:58:00,
2013-12-25 22:03:00,26.1,19.5,30.34,ESE,113,0.0,0.2,76,0.00,,,0.00,WUHU216HW,2013-12-26 04:03:00,
2013-12-25 22:08:00,25.7,19.2,30.33,West,270,0.0,0.2,76,0.00,,,0.00,WUHU216HW,2013-12-26 04:08:00,
2013-12-25 22:12:00,25.6,19.0,30.33,West,270,0.0,0.0,76,0.00,,,0.00,WUHU216HW,2013-12-26 04:12:00,
2013-12-25 22:13:00,25.6,19.0,30.33,West,270,0.0,0.2,76,0.00,,,0.00,WUHU216HW,2013-12-26 04:13:00,
2013-12-25 22:18:00,25.6,19.0,30.33,West,270,0.0,0.0,76,0.00,,,0.00,WUHU216HW,2013-12-26 04:18:00,
2013-12-25 22:42:00,24.3,17.8,30.33,ESE,113,0.0,0.0,76,0.00,,,0.00,WUHU216HW,2013-12-26 04:42:00,
2013-12-25 22:47:00,24.3,17.8,30.33,ESE,113,0.0,0.0,76,0.00,,,0.00,WUHU216HW,2013-12-26 04:47:00,
2013-12-25 22:59:00,23.0,16.6,30.33,West,270,0.0,0.0,76,0.00,,,0.00,WUHU216HW,2013-12-26 04:59:00,
2013-12-25 23:01:00,23.0,16.6,30.33,West,270,0.0,0.0,76,0.00,,,0.00,WUHU216HW,2013-12-26 05:01:00,
2013-12-25 23:02:00,23.0,16.6,30.33,West,270,0.0,0.0,76,0.00,,,0.00,WUHU216HW,2013-12-26 05:02:00,
2013-12-25 23:07:00,23.0,16.6,30.33,West,270,0.0,0.0,76,0.00,,,0.00,WUHU216HW,2013-12-26 05:07:00,
2013-12-25 23:29:00,20.9,14.4,30.33,NNE,23,0.0,0.0,76,0.00,,,0.00,WUHU216HW,2013-12-26 05:29:00,
2013-12-25 23:34:00,20.9,14.4,30.33,North,0,0.0,0.0,76,0.00,,,0.00,WUHU216HW,2013-12-26 05:34:00,
2013-12-25 23:39:00,20.9,14.4,30.33,WSW,248,0.0,0.4,76,0.00,,,0.00,WUHU216HW,2013-12-26 05:39:00,
2013-12-25 23:44:00,21.1,14.6,30.32,WSW,248,0.0,0.4,76,0.00,,,0.00,WUHU216HW,2013-12-26 05:44:00,
2013-12-25 23:49:00,20.7,14.2,30.32,SSW,203,0.0,0.0,76,0.00,,,0.00,WUHU216HW,2013-12-26 05:49:00,
2013-12-25 23:54:00,20.3,13.9,30.32,SE,135,0.0,0.0,76,0.00,,,0.00,WUHU216HW,2013-12-26 05:54:00,
2013-12-25 23:59:00,20.0,13.5,30.32,SE,135,0.0,1.1,76,0.00,,,0.00,WUHU216HW,2013-12-26 05:59:00,